Home > Weather > Chatham-Kent > Past weeks

Flag for Canada Past Weather in Chatham-Kent, Ontario, Canada — Yesterday and Last 2 Weeks

Now
66 °F

Passing clouds.


Feels Like: 66 °F
Forecast: 69 / 80 °F
Wind: 5 mph from North

Location: Windsor Weather Station

Current Time: Jul 26, 2016 at 6:25:32 AM

Latest Report: Jul 26, 2016 at 6:00 AM


Visibility: 15 mi

Pressure: 30.02 "Hg

Humidity: 88%

Dew Point: 63 °F

Location of Chatham-KentLocation

Past Weather in Chatham-Kent — Graph

°F

Chatham-Kent Temperature Yesterday

Maximum temperature yesterday: 91 °F (at 4:00 PM)
Minimum temperature yesterday: 75 °F (at 6:00 AM)
Average temperature yesterday: 82 °F

High & Low Weather Summary for the Past Weeks

 TemperatureHumidityPressure
High93 °F (Jul 22, 3:00 PM)100% (Jul 17, 3:00 AM)30.28 "Hg (Jul 17, 3:00 AM)
Low59 °F (Jul 20, 4:00 AM)34% (Jul 23, 4:00 PM)29.77 "Hg (Jul 13, 8:00 PM)
Average76 °F70%29.99 "Hg
* Reported Jul 11 5:00 AM — Jul 26 5:00 AM, Chatham-Kent, Weather by CustomWeather, © 2016

Note: Actual official high and low records may vary slightly from our data, if they occured in-between our weather recording intervals... More about our weather records

Advertising

Chatham-Kent Weather History for the Previous 24 Hours

Scroll right to see more
 ConditionsComfort  
Time TempWeatherWind HumidityBarometerVisibility
5:00 AM
Tue, Jul 26
68 °FClear.2 mph94%30.00 "Hg15 mi
4:00 AM68 °FClear.2 mph88%30.00 "Hg15 mi
3:00 AM70 °FPassing clouds.5 mph73%30.00 "Hg15 mi
2:00 AM75 °FPassing clouds.8 mph61%29.97 "Hg15 mi
1:00 AM77 °FPassing clouds.9 mph57%29.96 "Hg15 mi
12:00 AM79 °FPassing clouds.8 mph58%29.95 "Hg15 mi
11:00 PM
Mon, Jul 25
79 °FPassing clouds.6 mph58%29.95 "Hg15 mi
10:00 PM82 °FPassing clouds.10 mph51%29.94 "Hg15 mi
9:00 PM84 °FBroken clouds.10 mph48%29.92 "Hg15 mi
8:00 PM86 °FScattered clouds.12 mph46%29.90 "Hg15 mi
7:00 PM88 °FScattered clouds.14 mph43%29.88 "Hg15 mi
6:00 PM90 °FScattered clouds.16 mph41%29.87 "Hg15 mi
5:00 PM90 °FBroken clouds.13 mph41%29.88 "Hg15 mi
4:00 PM91 °FPartly sunny.15 mph38%29.88 "Hg15 mi
3:00 PM90 °FScattered clouds.14 mph43%29.90 "Hg15 mi
2:00 PM90 °FBroken clouds.12 mph46%29.90 "Hg15 mi
1:00 PM86 °FPartly sunny.13 mph59%29.91 "Hg15 mi
12:00 PM82 °FScattered clouds.10 mph66%29.92 "Hg15 mi
11:00 AM79 °FBroken clouds.10 mph79%29.92 "Hg15 mi
10:00 AM77 °FMore clouds than sun.8 mph79%29.91 "Hg12 mi
9:00 AM77 °FOvercast.12 mph83%29.90 "Hg12 mi
8:00 AM77 °FPartly sunny.10 mph83%29.88 "Hg12 mi
7:00 AM75 °FPassing clouds.9 mph89%29.86 "Hg12 mi
6:54 AM75 °FPassing clouds.13 mph89%29.86 "Hg10 mi
6:00 AM75 °FLight rain. Mostly cloudy.9 mph94%29.86 "Hg12 mi
Weather by CustomWeather, © 2016

See weather overviewHow to use our weather pages